FENGYUN 1C DEB, 31415

Orbit data source: Space-Track

FENGYUN 1C DEB, 31415 is space debris in SSO originally from a launch on Mon, 10 May 1999 UTC launched from the Taiyaun Space Center, China (TSC). Fengyun 1C debris stems from the Chinese weather satellite Fengyun-1C, which was intentionally destroyed by a Chinese anti-satellite missile in 2007. This event dramatically increased the amount of space debris, with thousands of trackable fragments posing hazards to satellites and human spaceflight. The Fengyun 1C debris cloud has become a focal point in discussions about space sustainability and the need for international regulations to prevent the creation of new debris.

Loading next visibility...
Identifier
31415, 1999-025BTB
Orbit
SSO
Country
Flag of CNCN / PRC
Related business
Manufacturer
Unknown
Mission
Spacecraft
Bus & Motor
Unknown
Mass
Unknown
Launch date (UTC)
1999-05-10 (27 years ago)
Launch vehicle
Unknown
Launch site
Taiyaun Space Center, China (TSC)
Object type
Payload
Rocket body
Debris
Shape & HBR
Unknown shape, 0.1 m
Radar Cross Section
Small (<0.1 m²)

Expand to show TLE details & history
Last TLE update: 1 week ago

TLE from 1 week ago
0 FENGYUN 1C DEB
1 31415U 99025BTB 26115.17446675  .00003041  00000-0  11359-2 0  9993
2 31415  99.6580  86.8308 0063549  55.6409 305.0760 14.31612621647399
Epoch: 2026-04-25T04:11Z
TLE epoch observation values (Epoch: 2026-04-25T04:11:13.927Z)
Latitude
-0.00003°
Longitude
170.82615°
Altitude
763.269 km
Speed
7.486 km/s
True Right ascension
05h 47m 19s
True Declination
0° 00' 00"
Sunlit
Object was in daylight at epoch
Visualization orbit readout
Latitude
Unknown
Longitude
Unknown
Altitude
Unknown
Speed
Unknown
Apparent Right ascension
Unknown
Apparent Declination
Unknown
Sunlit
N/A
Visualization observer readout
Local Sidereal Time
06:09:01
Azimuth
Unknown
Elevation
Unknown
Doppler factor
Unknown
Orbital elements
Apogee altitude
829.048 km
Perigee altitude
738.025 km
Semi-major axis
7,161.674 km
Eccentricity
0.00635
Inclination
99.658°
RAAN
86.8308°
Arg. of periapsis
55.6409°
True anomaly
304.47731°
Mean anomaly
305.076°
Eccentric anomaly
304.77693°
Mean motion
3.58114 °/min
Orbital period
100.53 mins
BSTAR
0.0011359
Loading maneuver chart data...
Computing Atmospheric mass density...

Documentation

Showing up to 5 results
|